STARLINK-3769, 52300

Orbit data source: Space-Track

STARLINK-3769, 52300 is a payload satellite owned by SpaceX/Seattle (US) in LEO that was launched on Thu, 21 Apr 2022 UTC via an FALCON 9 launch vehicle from the Air Force Eastern Test Range (AFETR). Payload-class satellites include a variety of spacecraft equipped with specific instruments for various scientific and technological missions. These include communications satellites like Starlink; space stations such as the ISS; scientific satellites like the Hubble; Earth observation satellites from companies like Planet Labs, Umbra, and HawkEye 360; GPS; miniature CubeSats for education and research; and military/defense satellites.

Loading next visibility...
Identifier
52300, 2022-041AR
Orbit
LEO
Country
Flag of USUS
Related business
Manufacturer
SpaceX/Seattle
Mission
Operational Commercial Communications
Bus & Motor
STARLINK, Unknown motor
Mass
297 kg wet, ~275 kg dry
Launch date (UTC)
2022-04-21 (4 years ago)
Launch vehicle
FALCON 9
Launch site
Air Force Eastern Test Range (AFETR)
Object type
Payload
Rocket body
Debris
Shape & HBR
Box + 1 Pan, 10.1 m
Radar Cross Section
11.087 m², Large (>1 m²)

Expand to show TLE details & history
Last TLE update: 12 hours ago

TLE from 12 hours ago
0 STARLINK-3769
1 52300U 22041AR  26130.12843441 -.00000141  00000-0  92209-5 0  9992
2 52300  53.2165 183.3122 0001066  84.9773 275.1341 15.08838284225004
Epoch: 2026-05-10T03:04Z
TLE epoch observation values (Epoch: 2026-05-10T03:04:56.733Z)
Latitude
0.00002°
Longitude
-90.86014°
Altitude
540.58 km
Speed
7.593 km/s
True Right ascension
12h 13m 14s
True Declination
0° 00' 00"
Sunlit
Object was in full shadow at epoch
Visualization orbit readout
Latitude
Unknown
Longitude
Unknown
Altitude
Unknown
Speed
Unknown
Apparent Right ascension
Unknown
Apparent Declination
Unknown
Sunlit
N/A
Visualization observer readout
Local Sidereal Time
23:38:54
Azimuth
Unknown
Elevation
Unknown
Doppler factor
Unknown
Orbital elements
Apogee altitude
540.731 km
Perigee altitude
539.256 km
Semi-major axis
6,918.131 km
Eccentricity
0.00011
Inclination
53.2165°
RAAN
183.3122°
Arg. of periapsis
84.9773°
True anomaly
275.12193°
Mean anomaly
275.1341°
Eccentric anomaly
275.12802°
Mean motion
3.7719 °/min
Orbital period
95.44 mins
BSTAR
0.0000092209
Loading maneuver chart data...
Computing Atmospheric mass density...
Loading historical data...
Loading historical data...
Loading historical data...
Loading historical data...
Loading historical data...
Loading historical data...
Loading historical data...

Documentation

Showing up to 5 results
|